Zurück zum Katalog

SL-8 DEB

AktivLEO
NORAD 21177·DEBRIS·🇷🇺 Russia

Gestartet Feb 12, 1991 von Plesetsk Cosmodrome

Loading…

Nächste Überflüge (nächste 24 Stunden)

TLE

AktuellSource: Space-Track

Epoche: Sep 14, 2026, 14:25 UTC

1 21177U 91009AQ  26257.60079956 -.00000085  00000-0 -71026-3 0  9995
2 21177  74.1120 343.7563 0146314 310.5895 113.3076 12.13558074573817

Verfolge SL-8 DEB in Echtzeit mit AllMySat

Download on the App Store